{"data":{"norad_id":61635,"intl_designator":"2024-191Q","name":"STARLINK-32370","alt_names":[],"object_type":"PAYLOAD","status":"ACTIVE","operator":null,"country":"US","launch_date":"2024-10-23","launch_site_code":"AFETR","launch_vehicle":null,"mission":null,"orbit_class":"UNKNOWN","rcs_meters":null,"size_class":null,"mass_kg":null,"dimensions":null,"purposes":["comms"],"wikipedia_slug":null,"has_3d_model":false,"image_url":null,"decayed_at":null,"tle_current":{"epoch":"2026-09-21T00:32:41.555616Z","epoch_age_seconds":146853,"freshness":"FRESH","line1":"1 61635U 24191Q   26264.02270319  .00000688  00000+0  34527-4 0  9998","line2":"2 61635  43.0045 131.0563 0001115 266.5463  93.5261 15.27578779107415","mean_motion":15.27578779,"eccentricity":0.0001115,"inclination_deg":43.0045,"raan_deg":131.0563,"arg_perigee_deg":266.5463,"mean_anomaly_deg":93.5261,"bstar":3.4527e-5,"rev_number":10741,"period_min":94.266824061452,"perigee_km":482.28772949797,"apogee_km":483.81777481271,"semimajor_km":6861.1897521553,"source":"CELESTRAK","updated_at":"2026-09-22T09:00:49.397707Z"}}}